SM7SJR-13 Weather Reports


time (UTC)temp
C
wind
direction
speed
KPH
gust
KPH
rain 1hr
cm
rain 24hr
cm
rain mn
cm
humidity
%
barometer
mb
20260504023003 7 284 4.8 8.0 0.00 0.00 0.00 95 1005.3
20260504021504 7 289 0.0 4.8 0.00 0.00 0.00 95 1004.7
20260504020004 7 261 0.0 0.0 0.00 0.00 0.00 95 1004.7
20260504014503 7 261 0.0 0.0 0.00 0.00 0.00 95 1004.8
20260504011503 7 261 0.0 0.0 0.00 0.00 0.00 95 1005.6
20260504010004 7 261 0.0 0.0 0.00 0.00 0.00 95 1005.6
20260504003004 7 261 0.0 4.8 0.00 0.00 0.00 94 1006.0
20260504000004 7 8 4.8 9.7 0.00 0.00 0.00 95 1006.8
20260503233003 6 180 0.0 0.0 0.00 0.00 0.00 94 1006.8
20260503231504 6 180 0.0 9.7 0.00 0.00 0.00 95 1006.8
20260503230003 5 178 3.2 9.7 0.00 0.00 0.00 94 1006.8
20260503223004 5 41 0.0 0.0 0.00 0.00 0.00 93 1006.7
20260503221504 5 41 0.0 0.0 0.00 0.00 0.00 93 1006.7
20260503220004 6 41 0.0 0.0 0.00 0.00 0.00 92 1007.1
20260503214504 6 41 0.0 0.0 0.00 0.00 0.00 92 1007.2
20260503213004 6 41 0.0 0.0 0.00 0.00 0.00 91 1007.2
20260503210003 6 41 0.0 0.0 0.00 0.00 0.00 90 1007.6
20260503204504 7 41 0.0 0.0 0.00 0.00 0.00 88 1007.6
20260503201503 8 41 0.0 0.0 0.00 0.00 0.00 86 1007.7
20260503200004 8 41 0.0 0.0 0.00 0.00 0.00 86 1007.7
20260503194503 8 41 0.0 0.0 0.00 0.00 0.00 85 1007.9
20260503193004 9 41 0.0 0.0 0.00 0.00 0.00 84 1007.7
20260503191504 9 40 0.0 0.0 0.00 0.00 0.00 84 1007.7
20260503190004 9 40 0.0 0.0 0.00 0.00 0.00 84 1007.5
20260503184503 9 39 0.0 0.0 0.00 0.00 0.00 84 1007.5
20260503183004 10 39 0.0 0.0 0.00 0.00 0.00 82 1007.6
20260503181504 10 39 0.0 4.8 0.00 0.00 0.00 82 1007.4
20260503180004 10 39 0.0 4.8 0.00 0.00 0.00 82 1007.1
20260503174503 10 29 0.0 9.7 0.00 0.00 0.00 80 1007.0
20260503173005 11 38 3.2 9.7 0.00 0.00 0.00 80 1007.0
20260503171504 11 10 4.8 9.7 0.00 0.00 0.00 80 1007.0
20260503071503 20 251 8.0 27.4 0.00 0.00 0.00 57 1007.7
20260503054504 16 238 8.0 12.9 0.00 0.00 0.00 64 1008.0
20260503053004 16 244 4.8 12.9 0.00 0.00 0.00 65 1008.0
20260503051503 15 243 3.2 11.3 0.00 0.00 0.00 66 1008.1
20260503050003 14 243 8.0 11.3 0.00 0.00 0.00 69 1008.1
20260503044504 12 235 4.8 9.7 0.00 0.00 0.00 78 1008.1
20260503043004 11 232 4.8 8.0 0.00 0.00 0.00 84 1008.1
20260503041504 10 221 1.6 4.8 0.00 0.00 0.00 85 1008.1
20260503040004 9 218 0.0 4.8 0.00 0.00 0.00 83 1008.1
20260503034504 9 232 0.0 4.8 0.00 0.00 0.00 81 1008.0
20260503031503 11 230 1.6 4.8 0.00 0.00 0.00 76 1008.0
20260503030003 12 230 3.2 4.8 0.00 0.00 0.00 73 1008.2
20260503024503 12 229 3.2 9.7 0.00 0.00 0.00 70 1008.2